TIME,DELAY(SENSOR),PRES,T(CTD),SAL,OXYGEN,RAWTEMP,T(OPTODE),TCPHASE,FLUOR,BETA(BETA700),BETA(BETA412),BETA(BETA440),CDOM,C(CSC),ED(ED412.40),ED(ED444.00),ED(ED489.70),ED(ED554.30),LU(LU411.80),LU(LU443.40),LU(LU489.60),LU(LU554.10),COMP,TILTX,TILTX(TILTY),CHECK
1379885520,5808,497.1199951171875000,6.8277997970581055,34.1338005065918000,81.9502334594726600,592.8602294921875000,6.8146691322326660,48.5762596130371100,51,104,85,79,77,15249,2147745106,2147424877,2148007853,2147872420,2147627254,2147074651,2148244498,2147198720,154,3,13,31371
1379885691,5808,483.6300048828125000,6.9549999237060550,34.1057014465332000,94.1231689453125000,589.1113281250000000,6.9354519844055180,47.1538887023925800,51,103,88,79,75,15248,2147746358,2147423990,2148007963,2147870125,2147624841,2147074331,2148244809,2147202523,180,4,13,48402
1379885813,5809,472.0599975585937500,7.1982998847961430,34.1073989868164060,98.0349197387695300,580.9210205078125000,7.1988830566406250,46.6031303405761700,51,103,89,79,76,15248,2147747446,2147426459,2148008027,2147873380,2147625810,2147076041,2148244141,2147202468,1006,4,13,51574
1379885928,5809,461.1799926757812500,7.3473000526428220,34.1040000915527340,105.3703994750976600,576.6959228515625000,7.3345379829406740,45.7684898376464840,50,104,84,80,76,15246,2147744813,2147424649,2148008813,2147873307,2147624347,2147076909,2148241499,2147202313,239,4,12,3916
1379886045,5809,450.7500000000000000,7.4686999320983890,34.0863990783691400,117.4428024291992200,572.5878295898438000,7.4662861824035645,44.5039596557617200,51,101,85,79,74,15247,2147744155,2147427995,2148008795,2147872164,2147624100,2147081444,2148242093,2147200630,2979,3,13,9610
1379886184,5808,439.1499938964844000,7.8122000694274900,34.0857009887695300,128.3890075683593800,562.1635131835938000,7.7999291419982910,43.3070907592773440,51,105,84,79,73,15249,2147741814,2147424393,2148008603,2147872813,2147623963,2147080219,2148241782,2147205549,2314,4,13,65407
1379886313,5811,428.0400085449219000,8.1026000976562500,34.0987014770507800,134.9167022705078000,553.5305175781250000,8.0755348205566400,42.5755195617675800,51,104,89,79,75,15245,2147744128,2147425398,2148006994,2147876955,2147621568,2147079158,2148234249,2147201718,2749,4,13,2074
1379886440,5807,416.8599853515625000,8.2517995834350590,34.0928993225097660,140.3338012695312500,547.8499755859375000,8.2565441131591800,42.0076408386230500,50,104,88,80,73,15248,2147740123,2147424777,2148006628,2147873179,2147621632,2147085275,2148234788,2147205357,1774,3,13,65061
1379886555,5806,406.3200073242187500,8.5459995269775390,34.0978012084960940,147.5388946533203000,539.1223754882812000,8.5341358184814450,41.2531204223632800,50,103,86,79,73,15245,2147737865,2147425673,2148005961,2147870838,2147621924,2147081709,2148233490,2147203456,700,4,13,21594
1379886672,5809,395.2799987792969000,8.8090000152587890,34.0971984863281250,154.0850982666015600,529.9821166992188000,8.8242025375366210,40.5658988952636700,50,104,86,80,73,15242,2147741366,2147429046,2148005440,2147871478,2147618176,2147090816,2148230857,2147204562,2975,3,13,53794
1379886787,5808,384.2500000000000000,9.0965995788574220,34.0970993041992200,165.3132934570312500,521.8927001953125000,9.0803785324096680,39.5601005554199200,50,106,84,80,71,15244,2147740534,2147426870,2148008182,2147871314,2147617819,2147090404,2148230198,2147204800,3513,4,13,56514
1379886916,5810,372.6700134277344000,9.2875003814697270,34.1026992797851560,172.7709960937500000,515.5264282226562000,9.2816410064697270,38.9045600891113300,50,103,86,80,71,15247,2147737819,2147425938,2148006610,2147874477,2147617444,2147094189,2148232009,2147203638,2561,3,13,33575
1379887055,5806,361.3200073242187500,9.5697002410888670,34.1073989868164060,178.8706970214843800,507.0338134765625000,9.5496606826782230,38.3276710510253900,49,108,86,79,71,15244,2147735113,2147425682,2148007286,2147875300,2147614070,2147097106,2148227931,2147204050,1756,3,13,13763
1379887194,5807,350.9400024414062500,10.0634002685546880,34.1218986511230500,185.4423980712890600,491.4302978515625000,10.0407695770263670,37.6144294738769500,49,103,86,78,71,15245,2147735661,2147424475,2148010285,2147870710,2147610230,2147102829,2148226185,2147206345,1226,4,13,44227
1379887346,5807,338.4800109863281000,10.6744003295898440,34.1360015869140600,193.5892028808593800,471.3770141601562500,10.6695299148559570,36.7462692260742200,48,104,88,78,70,15243,2147733092,2147429622,2148007753,2147872201,2147609389,2147101074,2148228288,2147210185,877,3,14,39308
1379887473,5810,327.1099853515625000,11.1621999740600590,34.1544990539550800,194.0644989013672000,456.1694946289062500,11.1446695327758790,36.4642601013183600,48,106,88,79,70,15242,2147730486,2147427172,2148013494,2147871899,2147604946,2147104182,2148222427,2147206363,353,4,13,377
1379887590,5806,316.8800048828125000,11.6077995300292970,34.1638984680175800,195.9338073730468800,442.8869934082031000,11.5585699081420900,36.1292304992675800,48,106,85,81,70,15240,2147729097,2147426221,2148017142,2147873993,2147604050,2147112091,2148221494,2147207963,651,3,14,3907
1379887741,5810,305.5400085449219000,12.0345001220703120,34.1511993408203100,186.6631927490234400,428.2735900878906000,12.0128097534179690,36.4899597167968750,49,106,85,80,69,15237,2147729380,2147427126,2148017133,2147871378,2147602861,2147115273,2148221193,2147209782,189,3,13,29596
1379887930,5807,291.9899902343750000,12.5033998489379880,34.1719017028808600,188.0106048583984400,410.9274902343750000,12.5506000518798830,36.1232604980468750,48,105,87,81,68,15239,2147727689,2147431195,2148013586,2147873499,2147600100,2147116507,2148218870,2147210432,2630,3,14,15707
1379888055,5810,281.0299987792969000,13.4986000061035160,34.2387008666992200,195.8347015380859400,378.4656982421875000,13.5533399581909180,35.1147994995117200,48,104,88,80,67,15238,2147725924,2147442496,2148057764,2147873069,2147595026,2147131547,2148226331,2147213997,1691,3,14,59868
1379888172,5808,270.4599914550781000,14.2059001922607420,34.3170013427734400,200.4600982666015600,356.0239868164062500,14.2441501617431640,34.4874000549316400,49,106,84,79,68,15235,2147725595,2147444132,2148070528,2147870692,2147595364,2147135780,2148237302,2147212589,1296,2,14,60343
1379888299,5805,259.1700134277344000,14.4770002365112300,34.3498992919921900,202.7127990722656200,345.4063110351562500,14.5704002380371100,34.1918983459472660,49,105,87,79,66,15233,2147723520,2147458624,2148100790,2147872118,2147590939,2147147977,2148239616,2147212873,489,3,13,55604
1379888426,5810,249.0299987792968800,15.1731004714965820,34.4278984069824200,204.3885040283203000,324.1661071777344000,15.2220697402954100,33.7752914428710940,49,104,87,79,67,15235,2147722880,2147473014,2148139730,2147871396,2147586358,2147162422,2148255616,2147217142,2873,3,14,32077
1379888579,5808,237.8999938964843800,16.0923004150390620,34.5391998291015600,208.6183929443359400,294.5315856933594000,16.1295108795166000,33.0972518920898440,49,106,84,79,66,15232,2147724425,2147503378,2148209828,2147873709,2147586422,2147184173,2148288576,2147215369,2861,3,14,24877
1379888730,5808,226.9700012207031200,16.9375991821289060,34.6637001037597660,212.3701934814453000,266.9312133789062500,16.9733200073242200,32.4916191101074200,50,107,87,81,65,15229,2147723236,2147506797,2148198034,2147870381,2147579757,2147192923,2148280813,2147221568,899,2,14,64672
1379888881,5806,213.6300048828125000,17.5352001190185550,34.7420005798339840,214.3502960205078000,248.8881988525390600,17.5244998931884770,32.1288299560546900,50,105,85,79,64,15226,2147740416,2147622116,2148454052,2147873645,2147587977,2147261906,2148400438,2147231314,2782,2,14,23975
1379888984,5809,203.4299926757812500,18.1446990966796880,34.8233985900878900,213.4606018066406200,228.4812927246093800,18.1477203369140620,31.8926200866699220,51,108,83,79,63,15221,2147762642,2147712859,2148634605,2147872173,2147591936,2147322212,2148488000,2147235675,2289,3,14,44494
1379889051,5809,197.2899932861328000,18.4990997314453120,34.8810005187988300,214.9848937988281200,217.2079010009765600,18.4919891357421880,31.6545600891113280,53,107,86,80,63,15221,2147781641,2147770560,2148740050,2147872603,2147596379,2147357577,2148538861,2147239424,2221,2,14,30591
1379889131,5809,190.9700012207031200,19.4230995178222660,35.0373992919921900,218.3513946533203000,186.9996032714843800,19.4148006439209000,31.0645503997802730,55,106,84,80,62,15218,2147806628,2147856795,2148896896,2147874715,2147609709,2147414537,2148610925,2147246948,957,2,15,51683
1379889186,5808,187.1199951171875000,19.6222000122070300,35.0749015808105500,220.9617004394531200,180.8125000000000000,19.6039104461669920,30.8458309173584000,54,107,86,81,63,15214,2147833645,2147933750,2149039414,2147872265,2147620635,2147475026,2148678656,2147252077,774,3,14,64567
1379889253,5809,182.4100036621093800,19.8698005676269530,35.1081008911132800,221.9490051269531200,172.5749053955078000,19.8557605743408200,30.6847991943359380,57,108,85,80,62,15210,2147865874,2148031451,2149210358,2147877577,2147635968,2147537810,2148762221,2147256265,936,3,15,40462
1379889308,5807,178.6699981689453000,19.9792995452880860,35.1268005371093750,222.6125030517578000,168.6264038085937500,19.9765205383300780,30.5986194610595700,57,107,88,81,62,15212,2147890322,2148088768,2149294884,2147878436,2147644562,2147581174,2148811483,2147259337,1378,2,15,30270
1379889363,5808,174.7799987792968800,20.0874996185302730,35.1408996582031250,222.9210968017578000,164.9331970214843800,20.0894908905029300,30.5335807800292970,59,109,85,80,61,15209,2147931830,2148174372,2149447195,2147879296,2147663725,2147639689,2148888548,2147263524,1931,2,15,249
1379889447,5803,169.2100067138672000,20.3386993408203120,35.1799011230468750,223.1593017578125000,156.7263946533203000,20.3405990600585940,30.4129295349121100,61,108,83,82,61,15210,2147849700,2147859099,2148770066,2147876333,2147629933,2147454848,2148566802,2147241325,2309,2,15,26483
1379889514,5809,165.3699951171875000,20.5764999389648440,35.2148017883300800,223.8437042236328000,149.6587982177734400,20.5569591522216800,30.2851696014404300,64,110,88,80,62,15206,2148064137,2148472137,2149962112,2147882505,2147726436,2147834368,2149141851,2147282642,2286,2,15,37870
1379889581,5809,161.4799957275390600,20.7343006134033200,35.2407989501953100,224.6423034667968800,144.3932037353515600,20.7182197570800780,30.1757907867431640,69,109,86,81,59,15202,2148132370,2148606144,2150194843,2147883885,2147757604,2147926043,2149253604,2147292288,3160,2,16,43402
1379889648,5808,157.1900024414062500,20.9055004119873050,35.2537994384765600,225.3654937744140600,138.7469024658203000,20.8912105560302730,30.0656795501709000,72,109,87,80,61,15196,2148230683,2148819922,2150549878,2147885869,2147806326,2148060388,2149432256,2147309403,3454,2,16,41742
1379889715,5813,153.0200042724609400,21.0063991546630860,35.2438011169433600,226.0428924560547000,135.1882019042968800,21.0002803802490230,29.9856605529785160,80,120,87,81,61,15190,2148361362,2149083163,2150991241,2147890569,2147859684,2148212086,2149626029,2147322697,487,2,15,22161
1379889799,5807,148.3899993896484400,21.0928993225097660,35.2411994934082000,225.5670013427734400,132.6371002197265600,21.0784797668457030,29.9756202697753900,89,114,88,80,62,15184,2148561325,2149481280,2151647204,2147893595,2147947821,2148426358,2149914962,2147342875,504,2,15,7667
1379889890,5811,145.0800018310547000,21.1207008361816400,35.2445983886718750,225.6909027099609400,131.5357971191406200,21.1122493743896500,29.9553909301757800,88,114,87,81,59,15180,2148703853,2149723593,2152014738,2147900352,2148008795,2148558939,2150081590,2147356809,92,2,15,25943
1379890017,5808,141.2599945068359400,21.2115001678466800,35.2542991638183600,225.6587982177734400,128.9066009521484400,21.1928691864013670,29.9225101470947270,92,117,88,82,62,15179,2148547776,2149260416,2151104758,2147895049,2147924672,2148235245,2149584777,2147328438,244,2,15,2524
1379890157,5808,136.6399993896484400,21.3729991912841800,35.2759017944335940,226.8139953613281200,123.3998031616211000,21.3617897033691400,29.7940902709960940,94,115,89,81,61,15169,2148375862,2148780891,2150178331,2147887716,2147845723,2147950555,2149167232,2147289654,3466,2,15,42115
1379890272,5809,133.3099975585937500,21.5470008850097660,35.2939987182617200,228.8480072021484400,117.7465972900390600,21.5352897644042970,29.6216392517089840,99,117,88,81,60,15163,2149071890,2150100416,2152389394,2147912960,2148135259,2148651894,2150120274,2147363757,2684,2,15,62186
1379890441,5808,129.1199951171875000,21.8050003051757800,35.3002014160156250,231.3871002197265600,108.9253005981445300,21.8062000274658200,29.3856506347656250,110,119,92,82,61,15137,2150387721,2152371840,2155942838,2147950720,2148680804,2149756187,2151572480,2147485010,2400,1,15,26811
1379890568,5809,124.8000030517578100,21.8132991790771500,35.2853012084960940,234.0926055908203000,108.8246994018554700,21.8092899322509770,29.2560405731201170,114,119,89,81,61,15140,2149746852,2150858624,2153171035,2147927990,2148387620,2148871926,2150251145,2147389001,1044,2,15,39266
1379890659,5811,120.5299987792968800,21.8542995452880860,35.2858009338378900,234.4810028076172000,107.4480972290039000,21.8515892028808600,29.2202606201171880,117,121,86,83,60,15136,2152340178,2155022756,2159421970,2148015981,2149497718,2150974500,2152900598,2147607149,1158,2,16,23609
1379890743,5809,115.3399963378906200,21.9881000518798830,35.2948989868164060,234.8916015625000000,102.9313964843750000,21.9904193878173830,29.1433296203613280,122,118,88,81,60,15134,2153895890,2157086134,2162038464,2148072539,2150125394,2151891803,2153911670,2147709330,1357,1,15,29794
1379890798,5809,111.5999984741211000,22.1620006561279300,35.3023986816406250,235.6020965576172000,97.8647766113281200,22.1462306976318360,29.0453300476074220,127,121,88,81,61,15130,2155358080,2159015168,2164503597,2148129325,2150677787,2152682477,2154797174,2147793545,714,2,15,1867
1379890853,5806,108.2900009155273400,22.2674999237060550,35.3129997253418000,236.9794006347656200,94.2485427856445300,22.2574901580810550,28.9354896545410160,128,122,89,82,59,15124,2156956004,2161037412,2166935826,2148191232,2151316150,2153549732,2155737618,2147887789,665,2,15,34409
1379890932,5810,104.4300003051757800,22.3936004638671880,35.3202018737793000,239.0370941162109400,90.0379714965820300,22.3870906829834000,28.7875404357910160,114,116,88,83,59,15123,2159238628,2163607698,2169460809,2148265691,2152239890,2154699062,2156835099,2148000996,151,1,15,34645
1379891037,5806,100.9700012207031200,22.5895004272460940,35.3288002014160160,240.3395996093750000,84.1679916381836000,22.5678806304931640,28.6541690826416000,94,117,88,82,59,15131,2153534235,2154653723,2156395483,2148021138,2149994432,2150652717,2151750034,2147554331,2864,2,16,4139
1379891104,5811,99.4199981689453100,22.8852996826171880,35.3441009521484400,241.5995025634765600,74.4467163085937500,22.8675708770751950,28.4750499725341800,89,119,89,84,61,15125,2164947876,2169988589,2175682569,2148442102,2154728347,2157726363,2159616557,2148279158,3013,1,15,26
1379891207,5808,97.2099990844726600,23.0457992553710940,35.3485984802246100,244.1755981445312500,69.1219787597656200,23.0318794250488280,28.2935104370117200,82,120,87,83,59,15116,2168286025,2173742454,2179388955,2148564516,2156431497,2159792603,2161500662,2148454875,2815,1,16,38522
1379891274,5809,95.0599975585937500,23.1811008453369140,35.3540992736816400,245.1903991699218800,65.0495071411132800,23.1576194763183600,28.1978893280029300,81,119,91,84,59,15117,2170643858,2176303680,2181838162,2148689691,2157728091,2161334390,2162842285,2148594386,2517,2,15,52693
1379891358,5807,91.4499969482421900,23.2700004577636720,35.3583984375000000,246.0821990966797000,62.1306495666503900,23.2477893829345700,28.1223793029785160,76,126,91,84,59,15108,2174818587,2180668937,2186090541,2148916836,2160025746,2164053001,2165246720,2148827026,2923,1,15,2595
1379891413,5809,88.5299987792968800,23.5125999450683600,35.3620986938476560,246.4860992431640600,53.4251098632812500,23.5169391632080080,27.9966793060302730,73,124,91,84,56,15112,2179013686,2185154642,2190555099,2149128886,2162477403,2167006363,2167843593,2149086253,3320,1,15,8298
1379891468,5808,86.0000000000000000,23.6284999847412100,35.3656005859375000,247.9884948730468800,50.1832695007324200,23.6172599792480470,27.8912391662597660,74,123,89,84,59,15113,2183007689,2189530962,2194919350,2149389458,2164877632,2169712704,2170046336,2149309531,2453,1,16,62147
1379891523,5809,84.0500030517578100,23.8138008117675780,35.3592987060546900,249.1215972900390600,44.4367218017578100,23.7951908111572270,27.7712898254394530,73,124,90,83,58,15110,2187458038,2194201517,2199398464,2149630418,2167716489,2173026614,2172830985,2149600777,2098,2,16,47885
1379891590,5810,82.5000000000000000,23.9790992736816400,35.3651008605957000,250.0538940429687500,39.1126708984375000,23.9601898193359380,27.6658592224121100,69,122,89,84,58,15108,2188669860,2194842486,2199641600,2149741312,2168342491,2173381202,2172780644,2149598628,2570,1,16,9055
1379891699,5808,79.7200012207031200,24.0610008239746100,35.3694000244140600,250.8531036376953000,35.8380889892578100,24.0617408752441400,27.5914802551269530,68,123,92,84,58,15103,2192304502,2197519606,2201001426,2149889380,2171604635,2176479963,2174628598,2149780964,1987,0,16,44245
1379891754,5805,77.2799987792968800,24.1756992340087900,35.3728981018066400,251.0005035400390600,32.5266189575195300,24.1644897460937500,27.5444507598876950,69,122,88,86,55,15105,2205251346,2211500306,2215770276,2150835584,2179484169,2185752521,2182614747,2150603346,1036,1,16,4279
1379891809,5806,74.4700012207031200,24.2730998992919920,35.3774986267089840,251.2214965820312500,29.2178096771240230,24.2672195434570300,27.4946594238281250,66,122,90,84,58,15100,2188723529,2191028059,2192336356,2149859638,2170965961,2174281673,2171405321,2149524160,490,2,15,3088
1379891864,5810,71.3499984741211000,24.3600997924804700,35.3834991455078100,251.5671997070312500,27.1536903381347660,24.3313293457031250,27.4548301696777340,67,124,92,84,57,15094,2209463826,2213424850,2215665517,2151409435,2183080064,2188178916,2183291803,2150794669,786,2,16,33575
1379891919,5811,68.2600021362304700,24.6226005554199220,35.3834991455078100,251.0202026367187500,19.9702796936035160,24.5546092987060550,27.3900699615478500,66,122,91,86,59,15088,2206314560,2209058806,2210291254,2151504777,2182119104,2186226633,2180942692,2150641353,1254,1,16,42240
1379891976,5809,65.6299972534179700,24.6650009155273440,35.3847007751464840,251.0267944335937500,17.4348793029785160,24.6334800720214840,27.3587608337402340,65,123,93,84,56,15086,2196566838,2197571410,2197585956,2150827702,2177106898,2179703369,2174874843,2150030235,1683,1,16,61608
1379892031,5809,63.5400009155273440,24.7961006164550780,35.3834991455078100,251.0688934326172000,14.7646398544311520,24.7165908813476560,27.3245391845703120,65,128,89,84,59,15085,2199654802,2200287515,2199958802,2151108269,2179353033,2181825106,2176390061,2150214701,1962,1,16,39241
1379892086,5811,62.4599990844726560,25.0261993408203120,35.3712997436523440,250.3822021484375000,6.6985578536987305,24.9678707122802730,27.2553005218505860,65,122,93,85,56,15093,2201967232,2202398674,2201977307,2151440621,2181075026,2183511113,2177683264,2150384923,2329,2,16,10181
1379892397,5805,59.9599990844726560,25.1844005584716800,35.3835983276367200,251.1661071777343800,-0.1860737949609757,25.1826496124267580,27.1384105682373050,63,121,91,85,53,15090,2222406153,2222720128,2221805979,2153288265,2195943936,2198734692,2189405997,2151733942,2119,1,16,32841
1379892452,5807,57.9700012207031250,25.2924995422363280,35.3838005065918000,250.7167053222656200,-3.3763740062713623,25.2822704315185550,27.1185493469238280,65,123,91,85,58,15085,2292834569,2297860352,2299977078,2160892992,2242540086,2250200841,2232041801,2156742080,1601,1,16,17474
1379892519,5806,56.3300018310546900,25.4174003601074220,35.3662986755371100,250.1502990722656200,-7.1490879058837890,25.4001502990722660,27.0967102050781250,63,121,91,88,55,15072,2242517933,2242197622,2240572032,2155777645,2211619510,2214405339,2201268379,2153224539,1703,1,16,16031
1379892628,5808,54.2999992370605500,26.0186996459960940,35.3736991882324200,246.0599975585937500,-26.0951805114746100,25.9934902191162100,27.0408706665039060,62,121,95,85,55,15082,2259862134,2258504777,2256412626,2157892836,2225132388,2227311277,2210655917,2154431021,741,0,16,61125
1379892743,5811,52.7299995422363300,26.3043003082275400,35.4009017944335940,242.2805023193359400,-35.7507514953613300,26.2967700958251950,27.0867595672607420,63,123,91,84,56,15088,2269219053,2267524809,2265151670,2159293787,2233301659,2234911076,2216049344,2155168173,580,1,16,6687
1379893055,5808,50.4000015258789060,27.0506992340087900,35.4598007202148440,235.7183074951172000,-58.4812583923339840,27.0132904052734380,27.0997695922851560,60,123,92,83,56,15081,2322020626,2320605074,2318586249,2167021769,2282463734,2283788297,2253322166,2159903478,196,0,16,9978
1379893247,5807,48.2099990844726560,27.4281005859375000,35.4695014953613300,232.0520935058593800,-70.4579391479492200,27.3923397064209000,27.1191406250000000,60,122,90,86,56,15072,2348488850,2347686253,2346331227,2173320393,2310832493,2309576585,2271380352,2162768685,48,1,15,16254
1379893326,5809,46.5299987792968750,27.5002002716064450,35.4672012329101560,229.8217010498047000,-73.6415481567382800,27.4932899475097660,27.1818103790283200,57,121,92,85,53,15079,2257269065,2252162477,2247199405,2160223808,2240223652,2234093147,2210774418,2155000969,561,1,16,45469
1379893441,5810,44.4799995422363300,27.5559005737304700,35.4356002807617200,228.0536041259765600,-75.6264038085937500,27.5562591552734380,27.2391700744628900,62,120,93,82,53,15063,2346663113,2346689435,2343959168,2176694564,2325673252,2318587968,2274500973,2163769709,1577,0,17,18984
1379893537,5808,41.8400001525878900,27.5993995666503900,35.3968009948730500,226.4644012451172000,-77.1324996948242200,27.6040592193603500,27.2943706512451170,56,116,88,83,57,15086,2356000512,2354319433,2350940032,2180202368,2335424603,2323791332,2275520822,2164632374,1163,0,16,15019
1379893592,5809,39.7599983215332000,27.5974006652832030,35.3898010253906250,225.8459014892578000,-77.2656631469726600,27.6082897186279300,27.3216400146484380,57,118,86,82,56,15087,2356643766,2354008338,2351797952,2185235574,2354166921,2340927012,2288090377,2166835245,421,0,16,42359
1379893647,5809,37.5699996948242200,27.5941009521484380,35.3857002258300800,225.4727020263672000,-77.2095031738281200,27.6065101623535160,27.3398208618164060,55,121,90,82,55,15087,2378528521,2377730112,2377147849,2192725430,2371376731,2355401984,2297487323,2168986194,3492,1,17,4240
1379893702,5805,35.3300018310546900,27.5963993072509770,35.3825988769531250,225.0984039306640600,-77.1435089111328100,27.6044101715087900,27.3579902648925780,54,117,91,84,57,15083,2309558381,2303888758,2299335204,2179872246,2314117312,2295960950,2250877805,2162536548,3347,1,16,45139
1379893757,5809,33.0200004577636700,27.5981006622314450,35.3809013366699200,225.1134033203125000,-77.2032089233398400,27.6063098907470700,27.3566207885742200,53,117,88,85,53,15042,2367328228,2364505106,2363322349,2199900681,2377182994,2354691456,2293182948,2170383798,3222,1,17,37767
1379893841,5807,28.9200000762939450,27.6030998229980470,35.3796005249023440,225.2472991943359400,-77.6280670166015600,27.6198005676269530,27.3451404571533200,52,115,88,83,56,15088,2410541376,2409508955,2411039552,2224094573,2436118573,2406170752,2327469458,2177491017,3056,1,16,50480
1379893896,5804,25.7299995422363280,27.6075000762939450,35.3782005310058600,225.0919036865234400,-77.6530532836914000,27.6205902099609380,27.3521003723144530,52,114,90,81,58,15092,2411300086,2408705170,2409642550,2235065142,2453136091,2418052864,2333780251,2180600978,3021,1,17,3087